Location: Lanoux
(43.1180°N, 1.4255°E)
Time: 01:50:45
(UTC+00:00)

SL-16 R/B - Pass Details

Date: 13 December 2025
Orbit: 984 x 1007 km, 99.8° (Epoch: 17 January)

Event Time Altitude Azimuth Distance (km) Brightness Sun altitude
Rises 17:28:26 0° 8° (N) 3,729 5.3 -12.1°
Reaches altitude 10° 17:31:02 10° 2° (N) 2,773 4.7 -12.6°
Maximum altitude 17:36:48 41° 295° (WNW) 1,402 3.7 -13.6°
Drops below altitude 10° 17:42:29 10° 227° (SW) 2,744 5.9 -14.5°
Sets 17:45:04 0° 220° (SW) 3,686 6.6 -15.0°
